Flag Weather past 2 weeks in Husum, Schleswig-Holstein, Germany

Now
39 °F

Chilly.


Feels Like: 36 °F
Forecast: 42 / 49 °F
Wind: 5 mph from West

Location: Schleswig-Jagel

Current Time: Nov 24, 2014 at 11:52:34 PM

Latest Report: Nov 24, 2014 at 11:20 PM


Visibility: 4 mi

Pressure: 30.24 "Hg

Humidity: 93%

Dew point: 37 °F

Location of HusumLocation

Historic Weather in Husum — Graph

°F

Husum temperature yesterday

Maximum temperature yesterday: 48 °F (at 11:20 PM)
Minimum temperature yesterday: 41 °F (at 12:20 AM)
Average temperature yesterday: 43 °F

Past Weeks' High & Low Weather Summary

 TemperatureHumidityPressure
High52 °F (Nov 11, 1:20 PM)100% (Nov 10, 7:20 AM)30.39 "Hg (Nov 10, 7:20 AM)
Low28 °F (Nov 21, 6:20 AM)71% (Nov 20, 1:20 PM)29.59 "Hg (Nov 16, 2:20 PM)
Average46 °F92%29.97 "Hg
* Reported Nov 10 5:20 AM — Nov 24 10:20 PM, Husum, Weather by CustomWeather, © 2014

Note: Actual official high and low records may vary slightly from our data, if they occured in-between our weather recording intervals... More about our weather records

Advertising

Husum weather history for previous 24 hours

 ConditionsComfort  
Time TempWeatherWind HumidityBarometerVisibility
10:20 PM
Nov 24
41 °FQuite cool.7 mph93%30.24 "Hg4 mi
9:20 PM41 °FQuite cool.7 mph93%30.21 "Hg4 mi
8:20 PM45 °FPassing clouds.8 mph87%30.18 "HgN/A
7:20 PM46 °FPassing clouds.10 mph87%30.15 "HgN/A
6:20 PM45 °FPassing clouds.9 mph93%30.15 "HgN/A
5:20 PM46 °FSprinkles. Partly cloudy.10 mph87%30.15 "HgN/A
4:20 PM45 °FPassing clouds.10 mph87%30.12 "HgN/A
3:20 PM46 °FPassing clouds.10 mph87%30.12 "HgN/A
2:20 PM48 °FPassing clouds.12 mph82%30.12 "HgN/A
1:20 PM50 °FPassing clouds.10 mph71%30.12 "HgN/A
12:20 PM50 °FPassing clouds.10 mph71%30.12 "HgN/A
11:20 AM48 °FPassing clouds.9 mph82%30.09 "HgN/A
10:20 AM46 °FScattered clouds.8 mph87%30.09 "HgN/A
9:20 AM45 °FScattered clouds.9 mph93%30.07 "HgN/A
8:20 AM46 °FPartly sunny.9 mph87%30.04 "HgN/A
7:20 AM46 °FLight rain. Partly cloudy.13 mph93%30.01 "Hg5 mi
6:20 AM46 °FCool.10 mph93%29.98 "Hg3 mi
5:20 AM48 °FCool.10 mph94%29.92 "Hg4 mi
4:20 AM48 °FCool.10 mph94%29.92 "Hg1 mi
3:20 AM48 °FCool.8 mph94%29.89 "Hg1 mi
2:20 AM48 °FCool.9 mph87%29.89 "Hg5 mi
1:20 AM48 °FCool.9 mph82%29.89 "Hg5 mi
12:20 AM48 °FCool.9 mph87%29.92 "Hg5 mi
11:20 PM
Nov 23
48 °FCool.9 mph82%29.92 "Hg4 mi
Weather by CustomWeather, © 2014

See weather overviewHow to use our weather pages